Location: Observatory Park - Geauga Park District
(41.5832°N, 81.0716°W)
Time: 13:00:56
(UTC-04:00)

Envisat - Visible Passes

Search period start: 26 September 2021 00:00
Search period end: 06 October 2021 00:00
Orbit: 764 x 766 km, 98.2° (Epoch: 25 September)

Date Brightness Start Highest point End Pass type
(mag) Time Alt. Az. Time Alt. Az. Time Alt. Az.
26 Sep 4.4 06:03:47 10° NNE 06:08:35 40° E 06:13:19 10° SSE visible
27 Sep 5.8 05:27:57 10° NE 05:31:28 18° E 05:34:56 10° SE visible
28 Sep 3.3 06:28:53 10° NNE 06:33:59 72° ESE 06:39:02 10° S visible
29 Sep 4.9 05:52:28 10° NNE 05:57:00 32° E 06:01:30 10° SSE visible
30 Sep 6.0 05:17:05 10° ENE 05:19:49 14° E 05:22:32 10° ESE visible
01 Oct 3.8 06:17:26 10° NNE 06:22:27 56° E 06:27:24 10° S visible
02 Oct 5.3 05:41:14 10° NE 05:45:24 25° E 05:49:34 10° SSE visible
03 Oct 6.2 05:06:50 10° ENE 05:08:10 11° E 05:09:30 10° ESE visible
03 Oct 3.0 06:42:42 10° NNE 06:47:48 84° WNW 06:52:52 10° SSW visible
04 Oct 4.3 06:06:03 10° NNE 06:10:53 44° E 06:15:43 10° S visible
05 Oct 5.6 05:30:06 10° NE 05:33:47 20° E 05:37:28 10° SE visible
